Location: G�kdere
(37.0328°N, 30.9000°E)
Time: 02:50:05
(UTC+00:00)

Cosmos 2237 - Pass Details

Date: 03 March 2021
Orbit: 845 x 856 km, 70.8° (Epoch: 22 April)

Event Time Altitude Azimuth Distance (km) Brightness Sun altitude
Rises 16:21:32 0° 189° (S) 3,401 7.5 -6.6°
Reaches altitude 10° 16:24:00 10° 186° (S) 2,471 6.8 -7.1°
Maximum altitude 16:29:33 59° 108° (ESE) 983 4.3 -8.2°
Drops below altitude 10° 16:35:10 10° 30° (NNE) 2,492 6.4 -9.3°
Sets 16:37:40 0° 27° (NNE) 3,433 7.1 -9.8°
